Date String (YYYY-MM-DD hh:mm:ss) UTC,Instrument flags,absolute air pressure of the measurement (hPa),sample flow rate (lpm),inlet stack bypass flow (lpm),air temperature of the measurement (°C),ambient temperature measured by the external sensor (°C),aerosol sample conditioner tube jacket temperature (°C),OPC LED temperature (°C),internal box temperature (°C),relative humidity of the measurement (%),span deviation,mass concentration of particles derived from Lorenz-Mie calculation of OPC scattering (μg/m³),mass concentration of particles derived from Lorenz-Mie calculation of OPC scattering (μg/m³),mass concentration of particles derived from Lorenz-Mie calculation of OPC scattering (μg/m³)
DateTimeUTC,F1_M11,P_M11,Q1_M11,Q2_M11,T1_M11,T2_M11,T3_M11,T4_M11,T5_M11,U1_M11,ZSPAN_M11,X0_M11,X2_M11,X1_M11
2024-03-10 16:00:00,SystemResetWarning,0829.2,5.00,000.00,018.8,018.4,000.0,027.1,020.5,13.8,0000.0,0007.04,0003.81,0003.27
2024-03-10 16:01:00,SystemResetWarning,0829.1,5.01,000.00,018.8,018.4,000.0,027.1,020.6,13.2,0000.0,0007.23,0003.83,0003.31
2024-03-10 16:02:00,SystemResetWarning,0829.1,5.00,000.00,018.8,018.4,000.0,027.1,020.6,13.0,0000.0,0007.08,0003.86,0003.31
2024-03-10 16:03:00,SystemResetWarning,0829.1,4.99,000.00,018.8,018.4,000.0,027.1,020.6,12.5,0000.0,0007.56,0003.83,0003.29
2024-03-10 16:04:00,SystemResetWarning,0829.1,4.98,000.00,018.9,018.4,000.0,027.1,020.6,12.5,0000.0,0007.49,0003.79,0003.26
2024-03-10 16:05:00,SystemResetWarning,0829.1,5.02,000.00,018.9,018.5,000.0,027.2,020.6,13.4,0000.0,0007.56,0003.78,0003.25
2024-03-10 16:06:00,SystemResetWarning,0829.1,5.01,000.00,018.9,018.5,000.0,027.2,020.6,13.1,0000.0,0007.56,0003.78,0003.23
2024-03-10 16:07:00,SystemResetWarning,0829.3,4.99,000.00,018.9,018.5,000.0,027.2,020.7,13.3,0000.0,0007.51,0003.74,0003.18
2024-03-10 16:08:00,SystemResetWarning,0829.2,4.99,000.00,018.9,018.5,000.0,027.2,020.7,13.6,0000.0,0007.51,0003.71,0003.17
2024-03-10 16:09:00,SystemResetWarning,0829.1,5.01,000.00,018.9,018.5,000.0,027.2,020.7,13.3,0000.0,0007.47,0003.71,0003.19
2024-03-10 16:10:00,SystemResetWarning,0829.2,5.01,000.00,018.9,018.5,000.0,027.2,020.7,12.4,0000.0,0007.64,0003.74,0003.21
2024-03-10 16:11:00,SystemResetWarning,0829.2,4.99,000.00,019.0,018.6,000.0,027.2,020.7,12.4,0000.0,0007.58,0003.74,0003.24
2024-03-10 16:12:00,SystemResetWarning,0829.2,4.99,000.00,019.0,018.6,000.0,027.2,020.7,12.3,0000.0,0007.47,0003.72,0003.24
2024-03-10 16:13:00,SystemResetWarning,0829.1,5.01,000.00,019.0,018.6,000.0,027.3,020.7,13.4,0000.0,0007.36,0003.70,0003.26
2024-03-10 16:14:00,SystemResetWarning,0829.2,5.01,000.00,019.0,018.6,000.0,027.3,020.8,13.6,0000.0,0006.80,0003.72,0003.28
2024-03-10 16:15:00,SystemResetWarning,0829.2,5.00,000.00,019.0,018.6,000.0,027.3,020.8,13.5,0000.0,0006.91,0003.76,0003.30
2024-03-10 16:16:00,SystemResetWarning,0829.2,4.99,000.00,019.0,018.6,000.0,027.3,020.8,14.1,0000.0,0006.89,0003.80,0003.33
2024-03-10 16:17:00,SystemResetWarning,0829.2,4.99,000.00,019.0,018.7,000.0,027.3,020.8,14.3,0000.0,0007.05,0003.84,0003.36
2024-03-10 16:18:00,SystemResetWarning,0829.2,5.00,000.00,019.1,018.7,000.0,027.3,020.8,13.4,0000.0,0007.05,0003.87,0003.40
2024-03-10 16:19:00,SystemResetWarning,0829.1,5.01,000.00,019.1,018.7,000.0,027.3,020.8,13.8,0000.0,0007.63,0003.90,0003.43
2024-03-10 16:20:00,SystemResetWarning,0829.1,5.00,000.00,019.1,018.7,000.0,027.3,020.8,13.4,0000.0,0008.13,0003.91,0003.42
2024-03-10 16:21:00,SystemResetWarning,0829.1,5.00,000.00,019.1,018.7,000.0,027.4,020.9,12.7,0000.0,0008.05,0003.88,0003.40
2024-03-10 16:22:00,SystemResetWarning,0829.1,5.01,000.00,019.1,018.7,000.0,027.4,020.9,12.8,0000.0,0008.88,0003.91,0003.40
2024-03-10 16:23:00,SystemResetWarning,0829.1,4.99,000.00,019.1,018.7,000.0,027.4,020.9,13.7,0000.0,0008.97,0003.93,0003.41
2024-03-10 16:24:00,SystemResetWarning,0829.1,4.99,000.00,019.1,018.8,000.0,027.4,020.9,13.5,0000.0,0008.99,0003.94,0003.42
2024-03-10 16:25:00,SystemResetWarning,0829.1,5.00,000.00,019.2,018.8,000.0,027.4,020.9,13.4,0000.0,0009.63,0003.95,0003.43
2024-03-10 16:26:00,SystemResetWarning,0829.2,5.01,000.00,019.2,018.8,000.0,027.4,020.9,12.3,0000.0,0009.70,0003.97,0003.46
2024-03-10 16:27:00,SystemResetWarning,0829.2,5.00,000.00,019.2,018.8,000.0,027.4,020.9,11.6,0000.0,0009.80,0003.97,0003.47
2024-03-10 16:28:00,SystemResetWarning,0829.2,4.98,000.00,019.2,018.8,000.0,027.5,021.0,13.2,0000.0,0009.83,0003.95,0003.45
2024-03-10 16:29:00,SystemResetWarning,0829.2,5.00,000.00,019.2,018.8,000.0,027.5,021.0,13.8,0000.0,0009.78,0003.92,0003.43
2024-03-10 16:30:00,SystemResetWarning,0829.2,5.02,000.00,019.2,018.8,000.0,027.5,021.0,13.8,0000.0,0009.51,0003.89,0003.42
2024-03-10 16:31:00,SystemResetWarning,0829.2,4.98,000.00,019.2,018.9,000.0,027.5,021.0,13.8,0000.0,0009.02,0003.92,0003.43
2024-03-10 16:32:00,SystemResetWarning,0829.2,5.00,000.00,019.3,018.9,000.0,027.5,021.0,14.5,0000.0,0009.12,0003.98,0003.46
2024-03-10 16:33:00,SystemResetWarning,0829.1,5.01,000.00,019.3,018.9,000.0,027.5,021.0,14.7,0000.0,0008.66,0003.99,0003.47
2024-03-10 16:34:00,SystemResetWarning,0829.1,5.00,000.00,019.3,018.9,000.0,027.5,021.0,15.1,0000.0,0008.24,0003.98,0003.47
2024-03-10 16:35:00,SystemResetWarning,0829.1,5.00,000.00,019.3,018.9,000.0,027.5,021.0,14.4,0000.0,0008.38,0004.01,0003.48
2024-03-10 16:36:00,SystemResetWarning,0829.2,5.00,000.00,019.3,019.0,000.0,027.6,021.1,14.5,0000.0,0007.83,0004.03,0003.46
2024-03-10 16:37:00,SystemResetWarning,0829.2,5.00,000.00,019.3,019.0,000.0,027.6,021.1,14.3,0000.0,0007.73,0004.04,0003.44
2024-03-10 16:38:00,SystemResetWarning,0829.2,5.01,000.00,019.4,019.0,000.0,027.6,021.1,14.7,0000.0,0007.62,0004.04,0003.42
2024-03-10 16:39:00,SystemResetWarning,0829.2,5.00,000.00,019.4,019.0,000.0,027.6,021.1,14.9,0000.0,0007.98,0004.02,0003.41
2024-03-10 16:40:00,SystemResetWarning,0829.2,5.00,000.00,019.4,019.0,000.0,027.6,021.1,14.1,0000.0,0008.33,0004.03,0003.39
2024-03-10 16:41:00,SystemResetWarning,0829.2,5.00,000.00,019.4,019.0,000.0,027.6,021.1,13.7,0000.0,0008.48,0004.06,0003.40
2024-03-10 16:42:00,SystemResetWarning,0829.2,5.00,000.00,019.4,019.1,000.0,027.7,021.2,13.5,0000.0,0008.56,0004.04,0003.39
2024-03-10 16:43:00,SystemResetWarning,0829.2,5.00,000.00,019.4,019.1,000.0,027.7,021.2,12.8,0000.0,0008.59,0003.98,0003.35
2024-03-10 16:44:00,SystemResetWarning,0829.2,5.00,000.00,019.5,019.1,000.0,027.7,021.2,12.6,0000.0,0009.33,0003.91,0003.31
2024-03-10 16:45:00,SystemResetWarning,0829.1,5.00,000.00,019.5,019.1,000.0,027.7,021.2,13.4,0000.0,0009.37,0003.84,0003.25
2024-03-10 16:46:00,SystemResetWarning,0829.1,5.00,000.00,019.5,019.1,000.0,027.7,021.3,13.3,0000.0,0009.51,0003.82,0003.21
2024-03-10 16:47:00,SystemResetWarning,0829.1,5.00,000.00,019.5,019.2,000.0,027.7,021.3,12.6,0000.0,0009.61,0003.80,0003.19
2024-03-10 16:48:00,SystemResetWarning,0829.1,5.00,000.00,019.5,019.2,000.0,027.8,021.3,12.3,0000.0,0009.74,0003.78,0003.21
2024-03-10 16:49:00,SystemResetWarning,0829.1,5.00,000.00,019.5,019.2,000.0,027.8,021.3,12.9,0000.0,0010.34,0003.80,0003.22
2024-03-10 16:50:00,SystemResetWarning,0829.1,5.00,000.00,019.6,019.2,000.0,027.8,021.3,13.1,0000.0,0012.39,0003.87,0003.24
2024-03-10 16:51:00,SystemResetWarning,0829.2,5.00,000.00,019.6,019.2,000.0,027.8,021.3,12.7,0000.0,0012.77,0003.97,0003.29
2024-03-10 16:52:00,SystemResetWarning,0829.2,5.00,000.00,019.6,019.2,000.0,027.8,021.3,13.0,0000.0,0013.19,0004.09,0003.33
2024-03-10 16:53:00,SystemResetWarning,0829.2,5.00,000.00,019.6,019.3,000.0,027.8,021.4,13.0,0000.0,0013.40,0004.14,0003.36
2024-03-10 16:54:00,SystemResetWarning,0829.2,5.00,000.00,019.6,019.3,000.0,027.8,021.4,13.0,0000.0,0014.11,0004.25,0003.41
2024-03-10 16:55:00,SystemResetWarning,0829.1,5.01,000.00,019.6,019.3,000.0,027.9,021.4,13.1,0000.0,0014.31,0004.36,0003.44
2024-03-10 16:56:00,SystemResetWarning,0829.1,5.00,000.00,019.7,019.3,000.0,027.9,021.4,12.8,0000.0,0014.71,0004.48,0003.50
2024-03-10 16:57:00,SystemResetWarning,0829.2,5.00,000.00,019.7,019.3,000.0,027.9,021.4,13.3,0000.0,0014.80,0004.59,0003.55
2024-03-10 16:58:00,SystemResetWarning,0829.1,5.00,000.00,019.7,019.3,000.0,027.9,021.5,13.3,0000.0,0014.73,0004.65,0003.56
2024-03-10 16:59:00,SystemResetWarning,0829.2,5.00,000.00,019.7,019.4,000.0,027.9,021.5,13.0,0000.0,0014.71,0004.68,0003.55
